CW3699 Weather Reports


Display with metric or nautical units.
time (UTC)temp
F
wind
direction
speed
MPH
gust
MPH
rain 1hr
in
rain 24hr
in
rain mn
in
humidity
%
barometer
mb
20260906205417 74 31 0.0 2.0 0.00 0.00 0.00 70 1021.5
20260906204917 74 142 0.0 2.0 0.00 0.00 0.00 70 1021.4
20260906204417 74 18 0.0 2.0 0.00 0.00 0.00 69 1021.3
20260906203916 74 35 0.0 2.0 0.00 0.00 0.00 69 1021.4
20260906203417 75 23 0.0 2.0 0.00 0.00 0.00 69 1021.4
20260906202418 75 6 0.0 3.0 0.00 0.00 0.00 60 1021.2
20260906201917 75 23 1.0 2.0 0.00 0.00 0.00 64 1021.2
20260906201417 74 32 1.0 2.0 0.00 0.00 0.00 62 1021.3
20260906200931 74 34 1.0 2.0 0.00 0.00 0.00 67 1021.3
20260906200416 75 12 1.0 3.0 0.00 0.00 0.00 69 1021.3
20260906195932 75 19 1.0 2.0 0.00 0.00 0.00 70 1021.2
20260906195416 75 24 1.0 2.0 0.00 0.00 0.00 64 1021.2
20260906194916 75 74 1.0 2.0 0.00 0.00 0.00 65 1021.3
20260906194417 75 9 0.0 2.0 0.00 0.00 0.00 60 1021.3
20260906193917 75 28 1.0 2.0 0.00 0.00 0.00 63 1021.3
20260906192418 75 27 1.0 2.0 0.00 0.00 0.00 63 1021.5
20260906191917 74 359 1.0 2.0 0.00 0.00 0.00 63 1021.6
20260906190917 74 13 1.0 3.0 0.00 0.00 0.00 65 1021.6
20260906190417 74 11 0.0 3.0 0.00 0.00 0.00 67 1021.7
20260906185917 75 10 1.0 3.0 0.00 0.00 0.00 68 1021.6
20260906184917 75 18 0.0 2.0 0.00 0.00 0.00 68 1021.7
20260906184416 74 65 1.0 3.0 0.00 0.00 0.00 70 1021.8
20260906183417 74 31 0.0 2.0 0.00 0.00 0.00 70 1021.8
20260906182917 74 90 0.0 2.0 0.00 0.00 0.00 74 1021.9
20260906182416 73 65 0.0 2.0 0.00 0.00 0.00 72 1022.0
20260906181917 74 70 0.0 2.0 0.00 0.00 0.00 71 1022.0
20260906181417 74 68 0.0 2.0 0.00 0.00 0.00 72 1022.1
20260906180417 73 54 0.0 2.0 0.00 0.00 0.00 74 1022.1
20260906175917 73 35 1.0 2.0 0.00 0.00 0.00 75 1022.2
20260906175416 72 101 1.0 2.0 0.00 0.00 0.00 77 1022.2
20260906174917 72 49 0.0 3.0 0.00 0.00 0.00 77 1022.3
20260906174417 72 58 1.0 2.0 0.00 0.00 0.00 77 1022.3
20260906173917 72 52 1.0 2.0 0.00 0.00 0.00 77 1022.4
20260906173417 72 52 1.0 3.0 0.00 0.00 0.00 76 1022.4
20260906172916 72 65 1.0 2.0 0.00 0.00 0.00 78 1022.5
20260906172416 71 62 1.0 2.0 0.00 0.00 0.00 78 1022.6
20260906171416 71 45 1.0 2.0 0.00 0.00 0.00 79 1022.5
20260906170917 71 30 1.0 2.0 0.00 0.00 0.00 79 1022.4
20260906170416 71 59 1.0 2.0 0.00 0.00 0.00 78 1022.6
20260906165917 71 55 1.0 2.0 0.00 0.00 0.00 79 1022.6
20260906165417 71 74 1.0 2.0 0.00 0.00 0.00 80 1022.7
20260906164917 71 82 1.0 3.0 0.00 0.00 0.00 80 1022.7
20260906164417 71 30 1.0 3.0 0.00 0.00 0.00 79 1022.8
20260906163917 72 35 1.0 3.0 0.00 0.00 0.00 79 1022.9
20260906163417 72 54 1.0 3.0 0.00 0.00 0.00 78 1022.9
20260906162916 71 59 0.0 2.0 0.00 0.00 0.00 81 1022.8
20260906162417 71 70 1.0 2.0 0.00 0.00 0.00 80 1022.8
20260906161917 71 53 1.0 2.0 0.00 0.00 0.00 80 1022.8
20260906160916 72 54 0.0 2.0 0.00 0.00 0.00 79 1022.7
20260906160416 71 137 1.0 3.0 0.00 0.00 0.00 79 1022.7
20260906155916 71 119 1.0 3.0 0.00 0.00 0.00 80 1022.8
20260906155416 71 60 0.0 2.0 0.00 0.00 0.00 81 1022.7
20260906154917 71 50 0.0 2.0 0.00 0.00 0.00 81 1022.7
20260906154416 71 130 0.0 2.0 0.00 0.00 0.00 82 1022.7
20260906153917 70 46 1.0 2.0 0.00 0.00 0.00 83 1022.7
20260906153416 70 90 0.0 2.0 0.00 0.00 0.00 83 1022.6
20260906152416 69 63 0.0 2.0 0.00 0.00 0.00 85 1022.7
20260906151916 68 38 0.0 2.0 0.00 0.00 0.00 86 1022.6
20260906151416 68 65 0.0 2.0 0.00 0.00 0.00 87 1022.5
20260906150917 67 31 0.0 2.0 0.00 0.00 0.00 88 1022.6
20260906145916 66 81 0.0 1.0 0.00 0.00 0.00 90 1022.5
20260906144916 65 62 0.0 2.0 0.00 0.00 0.00 92 1022.3
20260906144416 65 79 0.0 2.0 0.00 0.00 0.00 93 1022.4
20260906143916 65 67 0.0 2.0 0.00 0.00 0.00 94 1022.5
20260906143417 65 54 0.0 2.0 0.00 0.00 0.00 94 1022.5
20260906142916 64 91 1.0 2.0 0.00 0.00 0.00 95 1022.5
20260906142417 64 75 0.0 2.0 0.00 0.00 0.00 95 1022.5
20260906141916 64 45 1.0 2.0 0.00 0.00 0.00 96 1022.4
20260906141416 64 80 1.0 2.0 0.00 0.00 0.00 96 1022.3
20260906140916 64 69 1.0 2.0 0.00 0.00 0.00 96 1022.3
20260906140417 64 70 1.0 2.0 0.00 0.00 0.00 97 1022.3
20260906135917 63 71 1.0 2.0 0.00 0.00 0.00 97 1022.2
20260906135417 63 81 1.0 2.0 0.00 0.00 0.00 97 1022.2
20260906134917 63 79 1.0 2.0 0.00 0.00 0.00 97 1022.1
20260906134416 62 89 1.0 2.0 0.00 0.00 0.00 98 1022.1
20260906133416 61 88 1.0 2.0 0.00 0.00 0.00 98 1022.1
20260906132916 60 100 1.0 2.0 0.00 0.00 0.00 97 1022.1
20260906132416 60 102 1.0 2.0 0.00 0.00 0.00 97 1022.0
20260906131916 59 110 1.0 2.0 0.00 0.00 0.00 97 1022.1
20260906131415 59 103 0.0 2.0 0.00 0.00 0.00 97 1022.0
20260906130917 58 136 1.0 2.0 0.00 0.00 0.00 97 1022.0
20260906130416 58 150 0.0 2.0 0.00 0.00 0.00 96 1022.1
20260906125915 57 71 0.0 1.0 0.00 0.00 0.00 96 1022.0
20260906125416 57 194 1.0 2.0 0.00 0.00 0.00 96 1022.0
20260906124916 57 109 0.0 1.0 0.00 0.00 0.00 96 1022.0
20260906124416 56 180 0.0 1.0 0.00 0.00 0.00 96 1021.9
20260906123916 56 161 0.0 1.0 0.00 0.00 0.00 96 1021.9
20260906123416 56 109 0.0 1.0 0.00 0.00 0.00 96 1021.9
20260906122416 56 147 1.0 2.0 0.00 0.00 0.00 96 1021.8
20260906121416 55 187 0.0 2.0 0.00 0.00 0.00 96 1021.6
20260906120916 55 190 0.0 2.0 0.00 0.00 0.00 96 1021.6
20260906120416 55 157 0.0 1.0 0.00 0.00 0.00 96 1021.6
20260906115917 55 160 1.0 2.0 0.00 0.00 0.00 96 1021.5
20260906115416 55 145 0.0 2.0 0.00 0.00 0.00 96 1021.6
20260906114916 55 142 0.0 1.0 0.00 0.00 0.00 96 1021.5
20260906114416 55 184 0.0 2.0 0.00 0.00 0.00 96 1021.4
20260906113916 55 172 0.0 1.0 0.00 0.00 0.00 95 1021.4
20260906113416 55 152 0.0 1.0 0.00 0.00 0.00 95 1021.4
20260906111916 55 191 0.0 1.0 0.00 0.00 0.00 95 1021.3
20260906111416 55 163 0.0 1.0 0.00 0.00 0.00 95 1021.4
20260906110916 55 151 0.0 1.0 0.00 0.00 0.00 95 1021.4
20260906105916 55 202 0.0 1.0 0.00 0.01 0.00 95 1021.3
20260906105415 55 192 0.0 1.0 0.00 0.01 0.00 95 1021.3
20260906104415 55 200 0.0 1.0 0.00 0.01 0.00 95 1021.2
20260906103916 55 174 0.0 1.0 0.00 0.01 0.00 95 1021.2
20260906103415 55 188 0.0 1.0 0.00 0.01 0.00 95 1021.2
20260906102416 55 180 0.0 1.0 0.00 0.01 0.00 95 1021.2
20260906101915 55 134 0.0 1.0 0.00 0.01 0.00 95 1021.1
20260906101417 55 175 0.0 1.0 0.00 0.01 0.00 95 1021.0
20260906100917 56 156 0.0 1.0 0.00 0.01 0.00 96 1021.0
20260906095916 55 161 0.0 1.0 0.00 0.01 0.00 96 1020.9
20260906095415 55 154 0.0 1.0 0.00 0.01 0.00 96 1020.9
20260906094916 55 162 0.0 1.0 0.00 0.01 0.00 96 1020.9
20260906094416 55 154 0.0 1.0 0.00 0.01 0.00 95 1020.9
20260906093918 55 153 0.0 1.0 0.00 0.01 0.00 95 1020.9
20260906093417 55 178 0.0 1.0 0.00 0.01 0.00 95 1020.8
20260906092916 55 172 0.0 1.0 0.00 0.01 0.00 95 1020.8
20260906092416 55 175 0.0 1.0 0.00 0.01 0.00 95 1020.8
20260906091916 55 157 0.0 1.0 0.00 0.01 0.00 95 1020.8
20260906091416 55 163 0.0 1.0 0.00 0.01 0.00 94 1020.9
20260906090916 55 173 0.0 1.0 0.00 0.01 0.00 94 1020.7
20260906090417 55 176 0.0 1.0 0.00 0.01 0.00 94 1020.6
20260906085416 55 133 0.0 1.0 0.00 0.01 0.00 94 1020.6
20260906084916 55 138 0.0 1.0 0.00 0.01 0.00 94 1020.5
20260906084416 56 163 0.0 0.0 0.00 0.01 0.00 95 1020.3
20260906083916 56 163 0.0 1.0 0.00 0.01 0.00 95 1020.2
20260906083417 56 174 0.0 1.0 0.00 0.01 0.00 95 1020.2
20260906082916 56 172 0.0 1.0 0.00 0.01 0.00 94 1020.2
20260906082431 56 182 0.0 1.0 0.00 0.01 0.00 95 1020.2
20260906081915 56 177 0.0 1.0 0.00 0.01 0.00 95 1020.2
20260906081415 56 185 0.0 1.0 0.00 0.01 0.00 95 1020.2
20260906080916 56 190 0.0 1.0 0.00 0.01 0.00 95 1020.1
20260906080416 56 182 0.0 1.0 0.00 0.01 0.00 95 1020.0
20260906075416 56 166 0.0 1.0 0.00 0.01 0.00 94 1020.0
20260906074916 56 178 0.0 1.0 0.00 0.01 0.00 94 1019.9
20260906074431 56 163 0.0 1.0 0.00 0.01 0.00 94 1019.9
20260906073916 56 146 0.0 1.0 0.00 0.01 0.00 94 1020.0
20260906073416 56 164 0.0 1.0 0.00 0.01 0.00 94 1019.9
20260906072916 56 153 0.0 1.0 0.00 0.01 0.00 93 1020.0
20260906072416 56 150 0.0 1.0 0.00 0.01 0.00 93 1020.0
20260906071916 57 158 0.0 1.0 0.00 0.01 0.00 93 1020.0
20260906071416 57 166 0.0 1.0 0.00 0.01 0.00 93 1020.1
20260906070915 57 167 0.0 1.0 0.00 0.01 0.00 93 1020.1
20260906070415 57 171 0.0 2.0 0.00 0.01 0.00 93 1020.2
20260906064916 58 143 0.0 1.0 0.00 0.01 0.00 94 1020.1
20260906063917 58 109 0.0 1.0 0.00 0.01 0.00 94 1020.1
20260906063415 58 115 0.0 1.0 0.00 0.01 0.00 94 1020.0
20260906062916 58 139 0.0 2.0 0.00 0.01 0.00 94 1019.9
20260906062415 58 138 0.0 2.0 0.00 0.01 0.00 93 1019.8
20260906061917 58 167 0.0 1.0 0.00 0.01 0.00 93 1020.0
20260906061416 59 157 0.0 2.0 0.00 0.01 0.00 94 1020.0
20260906060916 59 158 0.0 1.0 0.00 0.01 0.00 95 1020.1
20260906060416 59 139 0.0 1.0 0.00 0.01 0.00 95 1020.1
20260906055415 58 159 0.0 1.0 0.00 0.01 0.00 94 1020.1
20260906054916 58 178 0.0 2.0 0.00 0.01 0.00 94 1020.0
20260906054415 58 159 0.0 2.0 0.00 0.01 0.00 94 1020.0
20260906053916 58 167 0.0 1.0 0.00 0.01 0.00 93 1020.0
20260906053416 58 106 0.0 2.0 0.00 0.01 0.00 93 1020.0
20260906052918 58 124 0.0 1.0 0.00 0.01 0.00 93 1019.9
20260906052415 58 107 0.0 1.0 0.00 0.01 0.00 93 1020.0
20260906051916 58 90 1.0 2.0 0.00 0.01 0.00 93 1019.9
20260906051417 58 212 0.0 2.0 0.00 0.01 0.00 93 1019.8
20260906050416 58 182 0.0 1.0 0.00 0.01 0.00 93 1019.8
20260906045916 58 171 0.0 2.0 0.00 0.01 0.00 93 1019.8
20260906045416 58 216 0.0 1.0 0.00 0.01 0.00 93 1019.8
20260906044415 58 211 0.0 1.0 0.00 0.01 0.00 93 1019.7
20260906043916 58 197 0.0 2.0 0.00 0.01 0.00 93 1019.7
20260906043416 58 226 0.0 2.0 0.00 0.01 0.00 93 1019.5
20260906042930 58 134 0.0 1.0 0.00 0.01 0.00 92 1019.5
20260906042429 58 202 0.0 1.0 0.00 0.01 0.00 92 1019.5
20260906041418 58 183 0.0 1.0 0.00 0.01 0.00 91 1019.6
20260906040930 58 109 0.0 1.0 0.00 0.01 0.00 91 1019.5
20260906040415 58 176 0.0 1.0 0.00 0.01 0.00 91 1019.5
20260906035915 58 200 0.0 1.0 0.00 0.01 0.01 91 1019.4
20260906035417 58 184 0.0 1.0 0.00 0.01 0.01 90 1019.5
20260906034917 58 115 0.0 1.0 0.00 0.01 0.01 90 1019.5
20260906034418 58 185 0.0 1.0 0.00 0.01 0.01 90 1019.5
20260906033918 58 171 0.0 1.0 0.00 0.01 0.01 90 1019.5
20260906033416 58 172 0.0 1.0 0.00 0.01 0.01 89 1019.5
20260906032917 58 172 0.0 1.0 0.00 0.01 0.01 89 1019.3
20260906032431 58 193 0.0 1.0 0.00 0.01 0.01 88 1019.4
20260906031918 59 173 0.0 1.0 0.00 0.01 0.01 88 1019.3
20260906030918 59 203 0.0 2.0 0.00 0.01 0.01 88 1019.3
20260906030416 59 188 0.0 1.0 0.00 0.01 0.01 87 1019.3
20260906025916 59 171 0.0 1.0 0.00 0.01 0.01 87 1019.2
20260906024915 59 154 0.0 2.0 0.00 0.01 0.01 86 1019.2
20260906024417 59 209 0.0 1.0 0.00 0.01 0.01 86 1019.1
20260906023918 59 185 0.0 1.0 0.00 0.01 0.01 86 1019.0
20260906022915 60 172 0.0 1.0 0.00 0.01 0.01 86 1019.0
20260906022416 60 163 0.0 1.0 0.00 0.01 0.01 86 1019.0
20260906021916 60 162 1.0 2.0 0.00 0.01 0.01 86 1019.0
20260906021416 60 168 0.0 2.0 0.00 0.01 0.01 86 1019.0
20260906020918 60 177 0.0 2.0 0.00 0.01 0.01 86 1019.0
20260906020415 60 171 1.0 2.0 0.00 0.01 0.01 85 1019.0
20260906015918 61 195 0.0 1.0 0.00 0.01 0.01 85 1019.0
20260906015419 61 173 0.0 1.0 0.00 0.01 0.01 84 1019.1
20260906014931 61 155 0.0 2.0 0.00 0.01 0.01 84 1019.0
20260906014430 61 154 0.0 1.0 0.00 0.01 0.01 84 1018.9
20260906013915 61 155 0.0 1.0 0.00 0.01 0.01 83 1019.0
20260906013430 62 148 0.0 1.0 0.00 0.01 0.01 83 1019.0
20260906012918 62 140 0.0 1.0 0.00 0.01 0.01 83 1019.0
20260906012416 62 145 0.0 1.0 0.00 0.01 0.01 83 1019.0
20260906011916 63 167 0.0 1.0 0.00 0.01 0.01 83 1018.9
20260906011415 63 139 0.0 1.0 0.00 0.01 0.01 82 1018.8
20260906010916 63 115 0.0 1.0 0.00 0.01 0.01 82 1018.8
20260906005416 64 172 0.0 2.0 0.00 0.01 0.01 81 1018.8
20260906004916 64 168 0.0 1.0 0.00 0.01 0.01 80 1018.9
20260906004415 64 163 0.0 1.0 0.00 0.01 0.01 80 1018.7
20260906003917 65 151 0.0 1.0 0.00 0.01 0.01 80 1018.7
20260906002916 65 202 0.0 1.0 0.00 0.01 0.01 78 1018.6
20260906002416 66 164 0.0 1.0 0.00 0.01 0.01 77 1018.6
20260906001916 66 172 0.0 2.0 0.00 0.01 0.01 77 1018.5
20260906001415 67 176 0.0 2.0 0.00 0.01 0.01 76 1018.5
20260906000916 67 183 0.0 1.0 0.00 0.01 0.01 76 1018.5
20260906000415 67 183 1.0 2.0 0.00 0.01 0.01 75 1018.4
20260905235915 68 168 0.0 1.0 0.00 0.01 0.01 74 1018.4
20260905234915 69 128 0.0 1.0 0.00 0.01 0.01 71 1018.4
20260905234416 69 95 0.0 1.0 0.00 0.01 0.01 71 1018.5
20260905233416 70 133 0.0 1.0 0.00 0.01 0.01 68 1018.5
20260905232416 70 129 0.0 1.0 0.00 0.01 0.01 67 1018.6
20260905231416 71 115 0.0 1.0 0.00 0.01 0.01 65 1018.6
20260905230416 71 134 0.0 1.0 0.00 0.01 0.01 65 1018.6
20260905225915 72 110 0.0 2.0 0.00 0.01 0.01 64 1018.5
20260905225416 72 124 0.0 1.0 0.00 0.01 0.01 62 1018.5
20260905224916 72 110 0.0 2.0 0.00 0.01 0.01 60 1018.5
20260905224416 72 111 0.0 2.0 0.00 0.01 0.01 60 1018.5
20260905223416 72 118 0.0 2.0 0.00 0.01 0.01 60 1018.4
20260905222416 73 104 0.0 1.0 0.00 0.01 0.01 59 1018.5
20260905221415 73 112 0.0 2.0 0.00 0.01 0.01 58 1018.4
20260905220415 73 118 0.0 3.0 0.00 0.01 0.01 57 1018.3
20260905215416 73 123 0.0 2.0 0.00 0.01 0.01 58 1018.4
20260905214916 74 48 1.0 2.0 0.00 0.01 0.01 57 1018.3
20260905214415 74 65 1.0 2.0 0.00 0.01 0.01 57 1018.2
20260905213915 74 129 1.0 2.0 0.00 0.01 0.01 58 1018.3
20260905213415 74 41 1.0 2.0 0.00 0.01 0.01 58 1018.2
20260905212915 74 57 0.0 2.0 0.00 0.01 0.01 60 1018.2
20260905212416 74 54 1.0 2.0 0.00 0.01 0.01 59 1018.1
20260905211916 74 48 0.0 2.0 0.00 0.01 0.01 58 1018.1
20260905211416 74 70 1.0 2.0 0.00 0.01 0.01 60 1018.2
20260905210916 74 128 0.0 2.0 0.00 0.01 0.01 60 1018.1
20260905210415 74 67 0.0 2.0 0.00 0.01 0.01 57 1018.2